owner,sensor,date,latitude,longitude,air_pressure(mBar),qcFlag 
TABS,ioos:station:wmo:42046:1,2016-09-01T00:00:00Z,27.8903,-94.0367,1010.09,11111222 
TABS,ioos:station:wmo:42046:1,2016-09-01T00:30:00Z,27.8903,-94.0367,1010.14,11111222 
TABS,ioos:station:wmo:42046:1,2016-09-01T01:00:00Z,27.8903,-94.0367,1010.48,11111222 
TABS,ioos:station:wmo:42046:1,2016-09-01T01:30:00Z,27.8903,-94.0367,1010.53,11111222 
TABS,ioos:station:wmo:42046:1,2016-09-01T02:00:00Z,27.8903,-94.0367,1010.91,11111222 
TABS,ioos:station:wmo:42046:1,2016-09-01T02:30:00Z,27.8903,-94.0367,1011.2,11111222 
TABS,ioos:station:wmo:42046:1,2016-09-01T03:00:00Z,27.8903,-94.0367,1011.39,11111222 
TABS,ioos:station:wmo:42046:1,2016-09-01T03:30:00Z,27.8903,-94.0367,1011.51,11111222 
TABS,ioos:station:wmo:42046:1,2016-09-01T04:00:00Z,27.8903,-94.0367,1011.54,11111222 
TABS,ioos:station:wmo:42046:1,2016-09-01T04:30:00Z,27.8903,-94.0367,1011.56,11111222 
TABS,ioos:station:wmo:42046:1,2016-09-01T05:00:00Z,27.8903,-94.0367,1011.62,11111222 
TABS,ioos:station:wmo:42046:1,2016-09-01T05:30:00Z,27.8903,-94.0367,1011.62,11111222 
TABS,ioos:station:wmo:42046:1,2016-09-01T06:00:00Z,27.8903,-94.0367,1011.47,11111222 
TABS,ioos:station:wmo:42046:1,2016-09-01T06:30:00Z,27.8903,-94.0367,1011.17,11111222 
TABS,ioos:station:wmo:42046:1,2016-09-01T07:00:00Z,27.8903,-94.0367,1010.9,11111222 
TABS,ioos:station:wmo:42046:1,2016-09-01T07:30:00Z,27.8903,-94.0367,1010.88,11111222 
TABS,ioos:station:wmo:42046:1,2016-09-01T08:00:00Z,27.8903,-94.0367,1010.74,11111222 
TABS,ioos:station:wmo:42046:1,2016-09-01T08:30:00Z,27.8903,-94.0367,1010.57,11111222 
TABS,ioos:station:wmo:42046:1,2016-09-01T09:00:00Z,27.8903,-94.0367,1010.09,11111222 
TABS,ioos:station:wmo:42046:1,2016-09-01T09:30:00Z,27.8903,-94.0367,1009.95,11111222 
TABS,ioos:station:wmo:42046:1,2016-09-01T10:00:00Z,27.8903,-94.0367,1009.61,11111222 
TABS,ioos:station:wmo:42046:1,2016-09-01T10:30:00Z,27.8903,-94.0367,1010.22,11111222 
TABS,ioos:station:wmo:42046:1,2016-09-01T11:00:00Z,27.8903,-94.0367,1009.96,11111222 
TABS,ioos:station:wmo:42046:1,2016-09-01T11:30:00Z,27.8903,-94.0367,1010.38,11111222 
TABS,ioos:station:wmo:42046:1,2016-09-01T12:00:00Z,27.8903,-94.0367,1010.42,11111222 
TABS,ioos:station:wmo:42046:1,2016-09-01T12:30:00Z,27.8903,-94.0367,1010.62,11111222 
TABS,ioos:station:wmo:42046:1,2016-09-01T13:00:00Z,27.8903,-94.0367,1010.7,11111222 
TABS,ioos:station:wmo:42046:1,2016-09-01T13:30:00Z,27.8903,-94.0367,1011.05,11111222 
TABS,ioos:station:wmo:42046:1,2016-09-01T14:00:00Z,27.8903,-94.0367,1011.2,11111222 
TABS,ioos:station:wmo:42046:1,2016-09-01T14:30:00Z,27.8903,-94.0367,1011.5,11111222 
TABS,ioos:station:wmo:42046:1,2016-09-01T15:00:00Z,27.8903,-94.0367,1011.64,11111222 
TABS,ioos:station:wmo:42046:1,2016-09-01T15:30:00Z,27.8903,-94.0367,1011.87,11111222 
TABS,ioos:station:wmo:42046:1,2016-09-01T16:00:00Z,27.8903,-94.0367,1011.8,11111222 
TABS,ioos:station:wmo:42046:1,2016-09-01T16:30:00Z,27.8903,-94.0367,1011.72,11111222 
TABS,ioos:station:wmo:42046:1,2016-09-01T17:00:00Z,27.8903,-94.0367,1011.84,11111222 
TABS,ioos:station:wmo:42046:1,2016-09-01T17:30:00Z,27.8903,-94.0367,1011.43,11111222 
TABS,ioos:station:wmo:42046:1,2016-09-01T18:00:00Z,27.8903,-94.0367,1010.97,11111222 
TABS,ioos:station:wmo:42046:1,2016-09-01T18:30:00Z,27.8903,-94.0367,1010.97,11111222 
TABS,ioos:station:wmo:42046:1,2016-09-01T19:00:00Z,27.8903,-94.0367,1010.94,11111222 
TABS,ioos:station:wmo:42046:1,2016-09-01T19:30:00Z,27.8903,-94.0367,1010.75,11111222 
TABS,ioos:station:wmo:42046:1,2016-09-01T20:00:00Z,27.8903,-94.0367,1010.65,11111222 
TABS,ioos:station:wmo:42046:1,2016-09-01T20:30:00Z,27.8903,-94.0367,1010.42,11111222 
TABS,ioos:station:wmo:42046:1,2016-09-01T21:00:00Z,27.8903,-94.0367,1010.15,11111222 
TABS,ioos:station:wmo:42046:1,2016-09-01T21:30:00Z,27.8903,-94.0367,1009.73,11111222 
TABS,ioos:station:wmo:42046:1,2016-09-01T22:00:00Z,27.8903,-94.0367,1009.77,11111222 
TABS,ioos:station:wmo:42046:1,2016-09-01T22:30:00Z,27.8903,-94.0367,1009.85,11111222 
TABS,ioos:station:wmo:42046:1,2016-09-01T23:00:00Z,27.8903,-94.0367,1009.77,11111222 
TABS,ioos:station:wmo:42046:1,2016-09-01T23:30:00Z,27.8903,-94.0367,1010.08,11111222 
TABS,ioos:station:wmo:42046:1,2016-09-02T00:00:00Z,27.8903,-94.0367,1009.82,11111222 
TABS,ioos:station:wmo:42046:1,2016-09-02T00:30:00Z,27.8903,-94.0367,1010.03,11111222 
TABS,ioos:station:wmo:42046:1,2016-09-02T01:00:00Z,27.8903,-94.0367,1010.44,11111222 
TABS,ioos:station:wmo:42046:1,2016-09-02T01:30:00Z,27.8903,-94.0367,1010.71,11111222 
TABS,ioos:station:wmo:42046:1,2016-09-02T02:00:00Z,27.8903,-94.0367,1011.15,11111222 
TABS,ioos:station:wmo:42046:1,2016-09-02T02:30:00Z,27.8903,-94.0367,1011.3,11111222 
TABS,ioos:station:wmo:42046:1,2016-09-02T03:00:00Z,27.8903,-94.0367,1011.54,11111222 
TABS,ioos:station:wmo:42046:1,2016-09-02T03:30:00Z,27.8903,-94.0367,1011.95,11111222 
TABS,ioos:station:wmo:42046:1,2016-09-02T04:00:00Z,27.8903,-94.0367,1011.97,11111222 
TABS,ioos:station:wmo:42046:1,2016-09-02T04:30:00Z,27.8903,-94.0367,1011.78,11111222 
TABS,ioos:station:wmo:42046:1,2016-09-02T05:00:00Z,27.8903,-94.0367,1011.69,11111222 
TABS,ioos:station:wmo:42046:1,2016-09-02T05:30:00Z,27.8903,-94.0367,1011.71,11111222 
TABS,ioos:station:wmo:42046:1,2016-09-02T06:00:00Z,27.8903,-94.0367,1011.46,11111222 
TABS,ioos:station:wmo:42046:1,2016-09-02T06:30:00Z,27.8903,-94.0367,1011.27,11111222 
TABS,ioos:station:wmo:42046:1,2016-09-02T07:00:00Z,27.8903,-94.0367,1011.15,11111222 
TABS,ioos:station:wmo:42046:1,2016-09-02T07:30:00Z,27.8903,-94.0367,1011.32,11111222 
TABS,ioos:station:wmo:42046:1,2016-09-02T08:00:00Z,27.8903,-94.0367,1011.4,11111222 
TABS,ioos:station:wmo:42046:1,2016-09-02T08:30:00Z,27.8903,-94.0367,1011.32,11111222 
TABS,ioos:station:wmo:42046:1,2016-09-02T09:00:00Z,27.8903,-94.0367,1011.37,11111222 
TABS,ioos:station:wmo:42046:1,2016-09-02T09:30:00Z,27.8903,-94.0367,1011.51,11111222 
TABS,ioos:station:wmo:42046:1,2016-09-02T10:00:00Z,27.8903,-94.0367,1011.48,11111222 
TABS,ioos:station:wmo:42046:1,2016-09-02T10:30:00Z,27.8903,-94.0367,1011.65,11111222 
TABS,ioos:station:wmo:42046:1,2016-09-02T11:00:00Z,27.8903,-94.0367,1011.73,11111222 
TABS,ioos:station:wmo:42046:1,2016-09-02T11:30:00Z,27.8903,-94.0367,1011.8,11111222 
TABS,ioos:station:wmo:42046:1,2016-09-02T12:00:00Z,27.8903,-94.0367,1012.15,11111222 
TABS,ioos:station:wmo:42046:1,2016-09-02T12:30:00Z,27.8903,-94.0367,1012.36,11111222 
TABS,ioos:station:wmo:42046:1,2016-09-02T13:00:00Z,27.8903,-94.0367,1012.95,11111222 
TABS,ioos:station:wmo:42046:1,2016-09-02T13:30:00Z,27.8903,-94.0367,1012.95,11111222 
TABS,ioos:station:wmo:42046:1,2016-09-02T14:00:00Z,27.8903,-94.0367,1013.09,11111222 
TABS,ioos:station:wmo:42046:1,2016-09-02T14:30:00Z,27.8903,-94.0367,1013.07,11111222 
TABS,ioos:station:wmo:42046:1,2016-09-02T15:00:00Z,27.8903,-94.0367,1013.3,11111222 
TABS,ioos:station:wmo:42046:1,2016-09-02T15:30:00Z,27.8903,-94.0367,1013.76,11111222 
TABS,ioos:station:wmo:42046:1,2016-09-02T16:00:00Z,27.8903,-94.0367,1013.81,11111222 
TABS,ioos:station:wmo:42046:1,2016-09-02T16:30:00Z,27.8903,-94.0367,1013.46,11111222 
TABS,ioos:station:wmo:42046:1,2016-09-02T17:00:00Z,27.8903,-94.0367,1013.04,11111222 
TABS,ioos:station:wmo:42046:1,2016-09-02T17:30:00Z,27.8903,-94.0367,1013.18,11111222 
TABS,ioos:station:wmo:42046:1,2016-09-02T18:00:00Z,27.8903,-94.0367,1013.0,11111222 
TABS,ioos:station:wmo:42046:1,2016-09-02T18:30:00Z,27.8903,-94.0367,1013.06,11111222 
TABS,ioos:station:wmo:42046:1,2016-09-02T19:00:00Z,27.8903,-94.0367,1013.06,11111222 
TABS,ioos:station:wmo:42046:1,2016-09-02T19:30:00Z,27.8903,-94.0367,1012.66,11111222 
TABS,ioos:station:wmo:42046:1,2016-09-02T20:00:00Z,27.8903,-94.0367,1012.31,11111222 
TABS,ioos:station:wmo:42046:1,2016-09-02T20:30:00Z,27.8903,-94.0367,1012.28,11111222 
TABS,ioos:station:wmo:42046:1,2016-09-02T21:00:00Z,27.8903,-94.0367,1012.13,11111222 
TABS,ioos:station:wmo:42046:1,2016-09-02T21:30:00Z,27.8903,-94.0367,1011.82,11111222 
TABS,ioos:station:wmo:42046:1,2016-09-02T22:00:00Z,27.8903,-94.0367,1011.89,11111222 
TABS,ioos:station:wmo:42046:1,2016-09-02T22:30:00Z,27.8903,-94.0367,1011.57,11111222 
TABS,ioos:station:wmo:42046:1,2016-09-02T23:00:00Z,27.8903,-94.0367,1011.63,11111222 
TABS,ioos:station:wmo:42046:1,2016-09-02T23:30:00Z,27.8903,-94.0367,1011.53,11111222 
TABS,ioos:station:wmo:42046:1,2016-09-03T00:00:00Z,27.8903,-94.0367,1011.88,11111222 
TABS,ioos:station:wmo:42046:1,2016-09-03T00:30:00Z,27.8903,-94.0367,1012.37,11111222 
TABS,ioos:station:wmo:42046:1,2016-09-03T01:00:00Z,27.8903,-94.0367,1012.42,11111222 
TABS,ioos:station:wmo:42046:1,2016-09-03T01:30:00Z,27.8903,-94.0367,1012.7,11111222 
TABS,ioos:station:wmo:42046:1,2016-09-03T02:00:00Z,27.8903,-94.0367,1012.86,11111222 
TABS,ioos:station:wmo:42046:1,2016-09-03T02:30:00Z,27.8903,-94.0367,1012.99,11111222 
TABS,ioos:station:wmo:42046:1,2016-09-03T03:00:00Z,27.8903,-94.0367,1013.3,11111222 
TABS,ioos:station:wmo:42046:1,2016-09-03T03:30:00Z,27.8903,-94.0367,1013.41,11111222 
TABS,ioos:station:wmo:42046:1,2016-09-03T04:00:00Z,27.8903,-94.0367,1013.49,11111222 
TABS,ioos:station:wmo:42046:1,2016-09-03T04:30:00Z,27.8903,-94.0367,1013.51,11111222 
TABS,ioos:station:wmo:42046:1,2016-09-03T05:00:00Z,27.8903,-94.0367,1013.4,11111222 
TABS,ioos:station:wmo:42046:1,2016-09-03T05:30:00Z,27.8903,-94.0367,1013.32,11111222 
TABS,ioos:station:wmo:42046:1,2016-09-03T06:00:00Z,27.8903,-94.0367,1013.13,11111222 
TABS,ioos:station:wmo:42046:1,2016-09-03T06:30:00Z,27.8903,-94.0367,1013.15,11111222 
TABS,ioos:station:wmo:42046:1,2016-09-03T07:00:00Z,27.8903,-94.0367,1012.82,11111222 
TABS,ioos:station:wmo:42046:1,2016-09-03T07:30:00Z,27.8903,-94.0367,1012.53,11111222 
TABS,ioos:station:wmo:42046:1,2016-09-03T08:00:00Z,27.8903,-94.0367,1012.39,11111222 
TABS,ioos:station:wmo:42046:1,2016-09-03T08:30:00Z,27.8903,-94.0367,1012.46,11111222 
TABS,ioos:station:wmo:42046:1,2016-09-03T09:00:00Z,27.8903,-94.0367,1012.6,11111222 
TABS,ioos:station:wmo:42046:1,2016-09-03T09:30:00Z,27.8903,-94.0367,1012.36,11111222 
TABS,ioos:station:wmo:42046:1,2016-09-03T10:00:00Z,27.8903,-94.0367,1012.5,11111222 
TABS,ioos:station:wmo:42046:1,2016-09-03T10:30:00Z,27.8903,-94.0367,1012.49,11111222 
TABS,ioos:station:wmo:42046:1,2016-09-03T11:00:00Z,27.8903,-94.0367,1012.29,11111222 
TABS,ioos:station:wmo:42046:1,2016-09-03T11:30:00Z,27.8903,-94.0367,1012.76,11111222 
TABS,ioos:station:wmo:42046:1,2016-09-03T12:00:00Z,27.8903,-94.0367,1012.6,11111222 
TABS,ioos:station:wmo:42046:1,2016-09-03T12:30:00Z,27.8903,-94.0367,1013.26,11111222 
TABS,ioos:station:wmo:42046:1,2016-09-03T13:00:00Z,27.8903,-94.0367,1013.57,11111222 
TABS,ioos:station:wmo:42046:1,2016-09-03T13:30:00Z,27.8903,-94.0367,1013.37,11111222 
TABS,ioos:station:wmo:42046:1,2016-09-03T14:00:00Z,27.8903,-94.0367,1013.45,11111222 
TABS,ioos:station:wmo:42046:1,2016-09-03T14:30:00Z,27.8903,-94.0367,1013.6,11111222 
TABS,ioos:station:wmo:42046:1,2016-09-03T15:00:00Z,27.8903,-94.0367,1014.14,11111222 
TABS,ioos:station:wmo:42046:1,2016-09-03T15:30:00Z,27.8903,-94.0367,1014.01,11111222 
TABS,ioos:station:wmo:42046:1,2016-09-03T16:00:00Z,27.8903,-94.0367,1014.35,11111222 
TABS,ioos:station:wmo:42046:1,2016-09-03T16:30:00Z,27.8903,-94.0367,1014.09,11111222 
TABS,ioos:station:wmo:42046:1,2016-09-03T17:00:00Z,27.8903,-94.0367,1013.97,11111222 
TABS,ioos:station:wmo:42046:1,2016-09-03T17:30:00Z,27.8903,-94.0367,1014.12,11111222 
TABS,ioos:station:wmo:42046:1,2016-09-03T18:00:00Z,27.8903,-94.0367,1014.02,11111222 
TABS,ioos:station:wmo:42046:1,2016-09-03T18:30:00Z,27.8903,-94.0367,1013.8,11111222 
TABS,ioos:station:wmo:42046:1,2016-09-03T19:00:00Z,27.8903,-94.0367,1013.38,11111222 
TABS,ioos:station:wmo:42046:1,2016-09-03T19:30:00Z,27.8903,-94.0367,1013.05,11111222 
TABS,ioos:station:wmo:42046:1,2016-09-03T20:00:00Z,27.8903,-94.0367,1012.68,11111222 
TABS,ioos:station:wmo:42046:1,2016-09-03T20:30:00Z,27.8903,-94.0367,1012.46,11111222 
TABS,ioos:station:wmo:42046:1,2016-09-03T21:00:00Z,27.8903,-94.0367,1012.71,11111222 
TABS,ioos:station:wmo:42046:1,2016-09-03T21:30:00Z,27.8903,-94.0367,1012.53,11111222 
TABS,ioos:station:wmo:42046:1,2016-09-03T22:00:00Z,27.8903,-94.0367,1012.53,11111222 
TABS,ioos:station:wmo:42046:1,2016-09-03T22:30:00Z,27.8903,-94.0367,1012.77,11111222 
TABS,ioos:station:wmo:42046:1,2016-09-03T23:00:00Z,27.8903,-94.0367,1013.03,11111222 
TABS,ioos:station:wmo:42046:1,2016-09-03T23:30:00Z,27.8903,-94.0367,1013.35,11111222 
TABS,ioos:station:wmo:42046:1,2016-09-04T00:00:00Z,27.8903,-94.0367,1013.4,11111222 
TABS,ioos:station:wmo:42046:1,2016-09-04T00:30:00Z,27.8903,-94.0367,1013.66,11111222 
TABS,ioos:station:wmo:42046:1,2016-09-04T01:00:00Z,27.8903,-94.0367,1013.5,11111222 
TABS,ioos:station:wmo:42046:1,2016-09-04T01:30:00Z,27.8903,-94.0367,1013.78,11111222 
TABS,ioos:station:wmo:42046:1,2016-09-04T02:00:00Z,27.8903,-94.0367,1014.04,11111222 
TABS,ioos:station:wmo:42046:1,2016-09-04T02:30:00Z,27.8903,-94.0367,1013.87,11111222 
TABS,ioos:station:wmo:42046:1,2016-09-04T03:00:00Z,27.8903,-94.0367,1013.9,11111222 
TABS,ioos:station:wmo:42046:1,2016-09-04T03:30:00Z,27.8903,-94.0367,1013.52,11111222 
TABS,ioos:station:wmo:42046:1,2016-09-04T04:00:00Z,27.8903,-94.0367,1013.48,11111222 
TABS,ioos:station:wmo:42046:1,2016-09-04T04:30:00Z,27.8903,-94.0367,1013.34,11111222 
TABS,ioos:station:wmo:42046:1,2016-09-04T05:00:00Z,27.8903,-94.0367,1013.54,11111222 
TABS,ioos:station:wmo:42046:1,2016-09-04T05:30:00Z,27.8903,-94.0367,1013.4,11111222 
TABS,ioos:station:wmo:42046:1,2016-09-04T06:00:00Z,27.8903,-94.0367,1013.57,11111222 
TABS,ioos:station:wmo:42046:1,2016-09-04T06:30:00Z,27.8903,-94.0367,1013.51,11111222 
TABS,ioos:station:wmo:42046:1,2016-09-04T07:00:00Z,27.8903,-94.0367,1013.34,11111222 
TABS,ioos:station:wmo:42046:1,2016-09-04T07:30:00Z,27.8903,-94.0367,1013.44,11111222 
TABS,ioos:station:wmo:42046:1,2016-09-04T08:00:00Z,27.8903,-94.0367,1013.16,11111222 
TABS,ioos:station:wmo:42046:1,2016-09-04T08:30:00Z,27.8903,-94.0367,1013.09,11111222 
TABS,ioos:station:wmo:42046:1,2016-09-04T09:00:00Z,27.8903,-94.0367,1013.14,11111222 
TABS,ioos:station:wmo:42046:1,2016-09-04T09:30:00Z,27.8903,-94.0367,1013.23,11111222 
TABS,ioos:station:wmo:42046:1,2016-09-04T10:00:00Z,27.8903,-94.0367,1013.25,11111222 
TABS,ioos:station:wmo:42046:1,2016-09-04T10:30:00Z,27.8903,-94.0367,1013.46,11111222 
TABS,ioos:station:wmo:42046:1,2016-09-04T11:00:00Z,27.8903,-94.0367,1013.54,11111222 
TABS,ioos:station:wmo:42046:1,2016-09-04T11:30:00Z,27.8903,-94.0367,1013.67,11111222 
TABS,ioos:station:wmo:42046:1,2016-09-04T12:00:00Z,27.8903,-94.0367,1014.06,11111222 
TABS,ioos:station:wmo:42046:1,2016-09-04T12:30:00Z,27.8903,-94.0367,1014.57,11111222 
TABS,ioos:station:wmo:42046:1,2016-09-04T13:00:00Z,27.8903,-94.0367,1014.85,11111222 
TABS,ioos:station:wmo:42046:1,2016-09-04T13:30:00Z,27.8903,-94.0367,1014.72,11111222 
TABS,ioos:station:wmo:42046:1,2016-09-04T14:00:00Z,27.8903,-94.0367,1014.9,11111222 
TABS,ioos:station:wmo:42046:1,2016-09-04T14:30:00Z,27.8903,-94.0367,1015.4,11111222 
TABS,ioos:station:wmo:42046:1,2016-09-04T15:00:00Z,27.8903,-94.0367,1015.79,11111222 
TABS,ioos:station:wmo:42046:1,2016-09-04T15:30:00Z,27.8903,-94.0367,1016.01,11111222 
TABS,ioos:station:wmo:42046:1,2016-09-04T16:00:00Z,27.8903,-94.0367,1016.08,11111222 
TABS,ioos:station:wmo:42046:1,2016-09-04T16:30:00Z,27.8903,-94.0367,1016.14,11111222 
TABS,ioos:station:wmo:42046:1,2016-09-04T17:00:00Z,27.8903,-94.0367,1016.1,11111222 
TABS,ioos:station:wmo:42046:1,2016-09-04T17:30:00Z,27.8903,-94.0367,1016.02,11111222 
TABS,ioos:station:wmo:42046:1,2016-09-04T18:00:00Z,27.8903,-94.0367,1015.6,11111222 
TABS,ioos:station:wmo:42046:1,2016-09-04T18:30:00Z,27.8903,-94.0367,1015.71,11111222 
TABS,ioos:station:wmo:42046:1,2016-09-04T19:00:00Z,27.8903,-94.0367,1015.54,11111222 
TABS,ioos:station:wmo:42046:1,2016-09-04T19:30:00Z,27.8903,-94.0367,1015.35,11111222 
TABS,ioos:station:wmo:42046:1,2016-09-04T20:00:00Z,27.8903,-94.0367,1014.96,11111222 
TABS,ioos:station:wmo:42046:1,2016-09-04T20:30:00Z,27.8903,-94.0367,1015.01,11111222 
TABS,ioos:station:wmo:42046:1,2016-09-04T21:00:00Z,27.8903,-94.0367,1014.85,11111222 
TABS,ioos:station:wmo:42046:1,2016-09-04T21:30:00Z,27.8903,-94.0367,1015.19,11111222 
TABS,ioos:station:wmo:42046:1,2016-09-04T22:00:00Z,27.8903,-94.0367,1015.02,11111222 
TABS,ioos:station:wmo:42046:1,2016-09-04T22:30:00Z,27.8903,-94.0367,1015.68,11111222 
TABS,ioos:station:wmo:42046:1,2016-09-04T23:00:00Z,27.8903,-94.0367,1015.35,11111222 
TABS,ioos:station:wmo:42046:1,2016-09-04T23:30:00Z,27.8903,-94.0367,1015.08,11111222 
TABS,ioos:station:wmo:42046:1,2016-09-05T00:00:00Z,27.8903,-94.0367,1014.94,11111222 
TABS,ioos:station:wmo:42046:1,2016-09-05T00:30:00Z,27.8903,-94.0367,1015.07,11111222 
TABS,ioos:station:wmo:42046:1,2016-09-05T01:00:00Z,27.8903,-94.0367,1015.0,11111222 
TABS,ioos:station:wmo:42046:1,2016-09-05T01:30:00Z,27.8903,-94.0367,1015.44,11111222 
TABS,ioos:station:wmo:42046:1,2016-09-05T02:00:00Z,27.8903,-94.0367,1015.98,11111222 
TABS,ioos:station:wmo:42046:1,2016-09-05T02:30:00Z,27.8903,-94.0367,1016.21,11111222 
TABS,ioos:station:wmo:42046:1,2016-09-05T03:00:00Z,27.8903,-94.0367,1016.34,11111222 
TABS,ioos:station:wmo:42046:1,2016-09-05T03:30:00Z,27.8903,-94.0367,1016.54,11111222 
TABS,ioos:station:wmo:42046:1,2016-09-05T04:00:00Z,27.8903,-94.0367,1016.32,11111222 
TABS,ioos:station:wmo:42046:1,2016-09-05T04:30:00Z,27.8903,-94.0367,1016.06,11111222 
TABS,ioos:station:wmo:42046:1,2016-09-05T05:00:00Z,27.8903,-94.0367,1016.09,11111222 
TABS,ioos:station:wmo:42046:1,2016-09-05T05:30:00Z,27.8903,-94.0367,1015.9,11111222 
TABS,ioos:station:wmo:42046:1,2016-09-05T06:00:00Z,27.8903,-94.0367,1016.22,11111222 
TABS,ioos:station:wmo:42046:1,2016-09-05T06:30:00Z,27.8903,-94.0367,1015.92,11111222 
TABS,ioos:station:wmo:42046:1,2016-09-05T07:00:00Z,27.8903,-94.0367,1016.01,11111222 
TABS,ioos:station:wmo:42046:1,2016-09-05T07:30:00Z,27.8903,-94.0367,1015.72,11111222 
TABS,ioos:station:wmo:42046:1,2016-09-05T08:00:00Z,27.8903,-94.0367,1015.71,11111222 
TABS,ioos:station:wmo:42046:1,2016-09-05T08:30:00Z,27.8903,-94.0367,1016.08,11111222 
TABS,ioos:station:wmo:42046:1,2016-09-05T09:00:00Z,27.8903,-94.0367,1015.82,11111222 
TABS,ioos:station:wmo:42046:1,2016-09-05T09:30:00Z,27.8903,-94.0367,1015.89,11111222 
TABS,ioos:station:wmo:42046:1,2016-09-05T10:00:00Z,27.8903,-94.0367,1016.08,11111222 
TABS,ioos:station:wmo:42046:1,2016-09-05T10:30:00Z,27.8903,-94.0367,1016.58,11111222 
TABS,ioos:station:wmo:42046:1,2016-09-05T11:00:00Z,27.8903,-94.0367,1016.51,11111222 
TABS,ioos:station:wmo:42046:1,2016-09-05T11:30:00Z,27.8903,-94.0367,1016.94,11111222 
TABS,ioos:station:wmo:42046:1,2016-09-05T12:00:00Z,27.8903,-94.0367,1016.87,11111222 
TABS,ioos:station:wmo:42046:1,2016-09-05T12:30:00Z,27.8903,-94.0367,1017.55,11111222 
TABS,ioos:station:wmo:42046:1,2016-09-05T13:00:00Z,27.8903,-94.0367,1017.68,11111222 
TABS,ioos:station:wmo:42046:1,2016-09-05T13:30:00Z,27.8903,-94.0367,1017.72,11111222 
TABS,ioos:station:wmo:42046:1,2016-09-05T14:00:00Z,27.8903,-94.0367,1018.08,11111222 
TABS,ioos:station:wmo:42046:1,2016-09-05T14:30:00Z,27.8903,-94.0367,1018.46,11111222 
TABS,ioos:station:wmo:42046:1,2016-09-05T15:00:00Z,27.8903,-94.0367,1018.63,11111222 
TABS,ioos:station:wmo:42046:1,2016-09-05T15:30:00Z,27.8903,-94.0367,1018.63,11111222 
TABS,ioos:station:wmo:42046:1,2016-09-05T16:00:00Z,27.8903,-94.0367,1018.66,11111222 
TABS,ioos:station:wmo:42046:1,2016-09-05T16:30:00Z,27.8903,-94.0367,1018.4,11111222 
TABS,ioos:station:wmo:42046:1,2016-09-05T17:00:00Z,27.8903,-94.0367,1018.57,11111222 
TABS,ioos:station:wmo:42046:1,2016-09-05T17:30:00Z,27.8903,-94.0367,1018.44,11111222 
TABS,ioos:station:wmo:42046:1,2016-09-05T18:00:00Z,27.8903,-94.0367,1018.15,11111222 
TABS,ioos:station:wmo:42046:1,2016-09-05T18:30:00Z,27.8903,-94.0367,1017.95,11111222 
TABS,ioos:station:wmo:42046:1,2016-09-05T19:00:00Z,27.8903,-94.0367,1017.55,11111222 
TABS,ioos:station:wmo:42046:1,2016-09-05T19:30:00Z,27.8903,-94.0367,1017.63,11111222 
TABS,ioos:station:wmo:42046:1,2016-09-05T20:00:00Z,27.8903,-94.0367,1017.29,11111222 
TABS,ioos:station:wmo:42046:1,2016-09-05T20:30:00Z,27.8903,-94.0367,1017.12,11111222 
TABS,ioos:station:wmo:42046:1,2016-09-05T21:00:00Z,27.8903,-94.0367,1016.78,11111222 
TABS,ioos:station:wmo:42046:1,2016-09-05T21:30:00Z,27.8903,-94.0367,1016.93,11111222 
TABS,ioos:station:wmo:42046:1,2016-09-05T22:00:00Z,27.8903,-94.0367,1017.28,11111222 
TABS,ioos:station:wmo:42046:1,2016-09-05T22:30:00Z,27.8903,-94.0367,1017.17,11111222 
TABS,ioos:station:wmo:42046:1,2016-09-05T23:00:00Z,27.8903,-94.0367,1017.39,11111222 
TABS,ioos:station:wmo:42046:1,2016-09-05T23:30:00Z,27.8903,-94.0367,1017.22,11111222 
TABS,ioos:station:wmo:42046:1,2016-09-06T00:00:00Z,27.8903,-94.0367,1017.22,11111222 
TABS,ioos:station:wmo:42046:1,2016-09-06T00:30:00Z,27.8903,-94.0367,1017.63,11111222 
TABS,ioos:station:wmo:42046:1,2016-09-06T01:00:00Z,27.8903,-94.0367,1017.54,11111222 
TABS,ioos:station:wmo:42046:1,2016-09-06T01:30:00Z,27.8903,-94.0367,1017.49,11111222 
TABS,ioos:station:wmo:42046:1,2016-09-06T02:00:00Z,27.8903,-94.0367,1017.95,11111222 
TABS,ioos:station:wmo:42046:1,2016-09-06T02:30:00Z,27.8903,-94.0367,1017.87,11111222 
TABS,ioos:station:wmo:42046:1,2016-09-06T03:00:00Z,27.8903,-94.0367,1018.23,11111222 
TABS,ioos:station:wmo:42046:1,2016-09-06T03:30:00Z,27.8903,-94.0367,1018.43,11111222 
TABS,ioos:station:wmo:42046:1,2016-09-06T04:00:00Z,27.8903,-94.0367,1018.37,11111222 
TABS,ioos:station:wmo:42046:1,2016-09-06T04:30:00Z,27.8903,-94.0367,1018.69,11111222 
TABS,ioos:station:wmo:42046:1,2016-09-06T05:00:00Z,27.8903,-94.0367,1018.55,11111222 
TABS,ioos:station:wmo:42046:1,2016-09-06T05:30:00Z,27.8903,-94.0367,1018.49,11111222 
TABS,ioos:station:wmo:42046:1,2016-09-06T06:00:00Z,27.8903,-94.0367,1018.65,11111222 
TABS,ioos:station:wmo:42046:1,2016-09-06T06:30:00Z,27.8903,-94.0367,1018.51,11111222 
TABS,ioos:station:wmo:42046:1,2016-09-06T07:00:00Z,27.8903,-94.0367,1018.46,11111222 
TABS,ioos:station:wmo:42046:1,2016-09-06T07:30:00Z,27.8903,-94.0367,1018.31,11111222 
TABS,ioos:station:wmo:42046:1,2016-09-06T08:00:00Z,27.8903,-94.0367,1017.8,11111222 
TABS,ioos:station:wmo:42046:1,2016-09-06T08:30:00Z,27.8903,-94.0367,1017.96,11111222 
TABS,ioos:station:wmo:42046:1,2016-09-06T09:00:00Z,27.8903,-94.0367,1017.95,11111222 
TABS,ioos:station:wmo:42046:1,2016-09-06T09:30:00Z,27.8903,-94.0367,1017.88,11111222 
TABS,ioos:station:wmo:42046:1,2016-09-06T10:00:00Z,27.8903,-94.0367,1018.15,11111222 
TABS,ioos:station:wmo:42046:1,2016-09-06T10:30:00Z,27.8903,-94.0367,1018.41,11111222 
TABS,ioos:station:wmo:42046:1,2016-09-06T11:00:00Z,27.8903,-94.0367,1018.74,11111222 
TABS,ioos:station:wmo:42046:1,2016-09-06T11:30:00Z,27.8903,-94.0367,1018.72,11111222 
TABS,ioos:station:wmo:42046:1,2016-09-06T12:00:00Z,27.8903,-94.0367,1018.95,11111222 
TABS,ioos:station:wmo:42046:1,2016-09-06T12:30:00Z,27.8903,-94.0367,1019.0,11111222 
TABS,ioos:station:wmo:42046:1,2016-09-06T13:00:00Z,27.8903,-94.0367,1019.35,11111222 
TABS,ioos:station:wmo:42046:1,2016-09-06T13:30:00Z,27.8903,-94.0367,1019.58,11111222 
TABS,ioos:station:wmo:42046:1,2016-09-06T14:00:00Z,27.8903,-94.0367,1019.93,11111222 
TABS,ioos:station:wmo:42046:1,2016-09-06T14:30:00Z,27.8903,-94.0367,1019.95,11111222 
TABS,ioos:station:wmo:42046:1,2016-09-06T15:00:00Z,27.8903,-94.0367,1020.67,11111222 
TABS,ioos:station:wmo:42046:1,2016-09-06T15:30:00Z,27.8903,-94.0367,1020.78,11111222 
TABS,ioos:station:wmo:42046:1,2016-09-06T16:00:00Z,27.8903,-94.0367,1020.97,11111222 
TABS,ioos:station:wmo:42046:1,2016-09-06T16:30:00Z,27.8903,-94.0367,1020.91,11111222 
TABS,ioos:station:wmo:42046:1,2016-09-06T17:00:00Z,27.8903,-94.0367,1020.84,11111222 
TABS,ioos:station:wmo:42046:1,2016-09-06T17:30:00Z,27.8903,-94.0367,1020.6,11111222 
TABS,ioos:station:wmo:42046:1,2016-09-06T18:00:00Z,27.8903,-94.0367,1020.28,11111222 
TABS,ioos:station:wmo:42046:1,2016-09-06T18:30:00Z,27.8903,-94.0367,1020.21,11111222 